| time (UTC) | temp F | wind direction | speed MPH | gust MPH | rain 1hr in | rain 24hr in | rain mn in | humidity % | barometer mb |
| 20260904120543 | 60 | 0 | 0.0 | 0.0 | 0.00 | 0.00 | 0.00 | 38 | 1022.5 |
| 20260904120106 | 60 | 0 | 0.0 | 0.0 | 0.00 | 0.00 | 0.00 | 38 | 1022.5 |
| 20260904115544 | 60 | 0 | 0.0 | 2.0 | 0.00 | 0.00 | 0.00 | 37 | 1022.4 |
| 20260904115044 | 60 | 0 | 0.0 | 5.0 | 0.00 | 0.00 | 0.00 | 37 | 1022.4 |
| 20260904114556 | 60 | 0 | 0.0 | 5.0 | 0.00 | 0.00 | 0.00 | 37 | 1022.4 |
| 20260904114044 | 60 | 0 | 0.0 | 5.0 | 0.00 | 0.00 | 0.00 | 38 | 1022.4 |
| 20260904113544 | 60 | 0 | 0.0 | 2.0 | 0.00 | 0.00 | 0.00 | 38 | 1022.4 |
| 20260904113057 | 60 | 0 | 0.0 | 2.0 | 0.00 | 0.00 | 0.00 | 38 | 1022.4 |
| 20260904112543 | 60 | 0 | 0.0 | 2.0 | 0.00 | 0.00 | 0.00 | 37 | 1022.4 |
| 20260904112043 | 60 | 0 | 0.0 | 2.0 | 0.00 | 0.00 | 0.00 | 37 | 1022.3 |
| 20260904111610 | 60 | 0 | 0.0 | 5.0 | 0.00 | 0.00 | 0.00 | 37 | 1022.4 |
| 20260904111043 | 60 | 0 | 0.0 | 5.0 | 0.00 | 0.00 | 0.00 | 37 | 1022.3 |
| 20260904110542 | 60 | 0 | 0.0 | 2.0 | 0.00 | 0.00 | 0.00 | 37 | 1022.4 |
| 20260904110106 | 60 | 0 | 0.0 | 2.0 | 0.00 | 0.00 | 0.00 | 37 | 1022.3 |
| 20260904105543 | 60 | 0 | 0.0 | 0.0 | 0.00 | 0.00 | 0.00 | 37 | 1022.3 |
| 20260904105044 | 61 | 0 | 0.0 | 4.0 | 0.00 | 0.00 | 0.00 | 36 | 1022.3 |
| 20260904104601 | 61 | 0 | 0.0 | 4.0 | 0.00 | 0.00 | 0.00 | 36 | 1022.3 |
| 20260904104044 | 61 | 0 | 0.0 | 7.0 | 0.00 | 0.00 | 0.00 | 35 | 1022.2 |
| 20260904103542 | 61 | 0 | 0.0 | 7.0 | 0.00 | 0.00 | 0.00 | 35 | 1022.3 |
| 20260904103108 | 61 | 0 | 0.0 | 8.0 | 0.00 | 0.00 | 0.00 | 36 | 1022.2 |
| 20260904102544 | 61 | 0 | 0.0 | 8.0 | 0.00 | 0.00 | 0.00 | 36 | 1022.3 |
| 20260904102044 | 61 | 299 | 0.0 | 7.0 | 0.00 | 0.00 | 0.00 | 36 | 1022.2 |
| 20260904101604 | 61 | 235 | 0.0 | 5.0 | 0.00 | 0.00 | 0.00 | 36 | 1022.2 |
| 20260904101044 | 61 | 0 | 0.0 | 5.0 | 0.00 | 0.00 | 0.00 | 36 | 1022.2 |
| 20260904100548 | 61 | 0 | 0.0 | 3.0 | 0.00 | 0.00 | 0.00 | 36 | 1022.2 |
| 20260904100107 | 61 | 0 | 0.0 | 3.0 | 0.00 | 0.00 | 0.00 | 36 | 1022.2 |
| 20260904095545 | 61 | 0 | 0.0 | 5.0 | 0.00 | 0.00 | 0.00 | 35 | 1022.2 |
| 20260904095045 | 62 | 281 | 0.0 | 6.0 | 0.00 | 0.00 | 0.00 | 35 | 1022.2 |
| 20260904094557 | 62 | 0 | 1.0 | 6.0 | 0.00 | 0.00 | 0.00 | 35 | 1022.1 |
| 20260904094045 | 62 | 292 | 0.0 | 3.0 | 0.00 | 0.00 | 0.00 | 35 | 1022.1 |
| 20260904093544 | 62 | 0 | 0.0 | 7.0 | 0.00 | 0.00 | 0.00 | 35 | 1022.1 |
| 20260904093103 | 62 | 0 | 0.0 | 7.0 | 0.00 | 0.00 | 0.00 | 35 | 1022.1 |
| 20260904092545 | 62 | 0 | 0.0 | 8.0 | 0.00 | 0.00 | 0.00 | 35 | 1022.0 |
| 20260904092045 | 62 | 0 | 0.0 | 8.0 | 0.00 | 0.00 | 0.00 | 36 | 1022.1 |
| 20260904091559 | 62 | 0 | 0.0 | 8.0 | 0.00 | 0.00 | 0.00 | 35 | 1022.0 |
| 20260904091044 | 62 | 0 | 0.0 | 8.0 | 0.00 | 0.00 | 0.00 | 35 | 1022.0 |
| 20260904090544 | 62 | 0 | 1.0 | 9.0 | 0.00 | 0.00 | 0.00 | 36 | 1022.1 |
| 20260904090057 | 61 | 0 | 0.0 | 11.0 | 0.00 | 0.00 | 0.00 | 36 | 1022.0 |
| 20260904085544 | 61 | 0 | 1.0 | 11.0 | 0.00 | 0.00 | 0.00 | 36 | 1022.1 |
| 20260904085045 | 61 | 0 | 1.0 | 11.0 | 0.00 | 0.00 | 0.00 | 36 | 1022.1 |
| 20260904084558 | 61 | 296 | 0.0 | 4.0 | 0.00 | 0.00 | 0.00 | 36 | 1022.2 |
| 20260904084047 | 61 | 271 | 0.0 | 5.0 | 0.00 | 0.00 | 0.00 | 36 | 1022.1 |
| 20260904083545 | 62 | 0 | 0.0 | 5.0 | 0.00 | 0.00 | 0.00 | 36 | 1022.2 |
| 20260904083102 | 62 | 0 | 0.0 | 7.0 | 0.00 | 0.00 | 0.00 | 35 | 1022.1 |
| 20260904082545 | 62 | 0 | 0.0 | 7.0 | 0.00 | 0.00 | 0.00 | 35 | 1022.1 |
| 20260904082045 | 62 | 0 | 0.0 | 7.0 | 0.00 | 0.00 | 0.00 | 35 | 1022.2 |
| 20260904081559 | 62 | 236 | 0.0 | 8.0 | 0.00 | 0.00 | 0.00 | 35 | 1022.2 |
| 20260904081047 | 63 | 0 | 0.0 | 8.0 | 0.00 | 0.00 | 0.00 | 35 | 1022.1 |
| 20260904080547 | 63 | 0 | 0.0 | 7.0 | 0.00 | 0.00 | 0.00 | 35 | 1022.2 |
| 20260904080058 | 63 | 0 | 0.0 | 7.0 | 0.00 | 0.00 | 0.00 | 35 | 1022.0 |
| 20260904075548 | 63 | 239 | 1.0 | 7.0 | 0.00 | 0.00 | 0.00 | 36 | 1022.2 |
| 20260904075047 | 62 | 0 | 0.0 | 3.0 | 0.00 | 0.00 | 0.00 | 36 | 1022.2 |
| 20260904074636 | 62 | 0 | 0.0 | 0.0 | 0.00 | 0.00 | 0.00 | 37 | 1022.2 |
| 20260904074045 | 62 | 0 | 0.0 | 1.0 | 0.00 | 0.00 | 0.00 | 39 | 1022.1 |
| 20260904073545 | 62 | 0 | 0.0 | 1.0 | 0.00 | 0.00 | 0.00 | 40 | 1022.2 |
| 20260904073101 | 62 | 0 | 0.0 | 0.0 | 0.00 | 0.00 | 0.00 | 40 | 1022.3 |
| 20260904072545 | 62 | 0 | 0.0 | 4.0 | 0.00 | 0.00 | 0.00 | 40 | 1022.2 |
| 20260904072044 | 62 | 0 | 0.0 | 4.0 | 0.00 | 0.00 | 0.00 | 40 | 1022.2 |
| 20260904071601 | 62 | 0 | 0.0 | 3.0 | 0.00 | 0.00 | 0.00 | 41 | 1022.3 |
| 20260904071044 | 62 | 0 | 0.0 | 0.0 | 0.00 | 0.00 | 0.00 | 41 | 1022.3 |
| 20260904070550 | 61 | 0 | 0.0 | 0.0 | 0.00 | 0.00 | 0.00 | 41 | 1022.4 |
| 20260904070059 | 62 | 0 | 0.0 | 0.0 | 0.00 | 0.00 | 0.00 | 42 | 1022.4 |
| 20260904065547 | 62 | 0 | 0.0 | 0.0 | 0.00 | 0.00 | 0.00 | 42 | 1022.3 |
| 20260904065045 | 62 | 0 | 0.0 | 0.0 | 0.00 | 0.00 | 0.00 | 42 | 1022.3 |
| 20260904064553 | 62 | 0 | 0.0 | 0.0 | 0.00 | 0.00 | 0.00 | 42 | 1022.4 |
| 20260904064047 | 62 | 0 | 0.0 | 0.0 | 0.00 | 0.00 | 0.00 | 42 | 1022.5 |
| 20260904063545 | 62 | 0 | 0.0 | 1.0 | 0.00 | 0.00 | 0.00 | 42 | 1022.5 |
| 20260904063111 | 62 | 0 | 0.0 | 2.0 | 0.00 | 0.00 | 0.00 | 41 | 1022.5 |
| 20260904062548 | 62 | 0 | 0.0 | 4.0 | 0.00 | 0.00 | 0.00 | 41 | 1022.4 |
| 20260904062049 | 62 | 0 | 0.0 | 4.0 | 0.00 | 0.00 | 0.00 | 41 | 1022.3 |
| 20260904061602 | 62 | 294 | 0.0 | 9.0 | 0.00 | 0.00 | 0.00 | 41 | 1022.3 |
| 20260904061044 | 63 | 0 | 0.0 | 9.0 | 0.00 | 0.00 | 0.00 | 41 | 1022.4 |
| 20260904060548 | 63 | 0 | 0.0 | 9.0 | 0.00 | 0.00 | 0.00 | 41 | 1022.4 |
| 20260904060113 | 62 | 0 | 0.0 | 6.0 | 0.00 | 0.00 | 0.00 | 41 | 1022.4 |
| 20260904055547 | 62 | 0 | 0.0 | 5.0 | 0.00 | 0.00 | 0.00 | 41 | 1022.3 |
| 20260904055044 | 62 | 0 | 0.0 | 5.0 | 0.00 | 0.00 | 0.00 | 41 | 1022.3 |
| 20260904054555 | 62 | 0 | 1.0 | 5.0 | 0.00 | 0.00 | 0.00 | 41 | 1022.3 |
| 20260904054046 | 62 | 0 | 0.0 | 7.0 | 0.00 | 0.00 | 0.00 | 41 | 1022.3 |
| 20260904053547 | 63 | 0 | 0.0 | 7.0 | 0.00 | 0.00 | 0.00 | 41 | 1022.2 |
| 20260904053101 | 63 | 0 | 1.0 | 6.0 | 0.00 | 0.00 | 0.00 | 41 | 1022.2 |
| 20260904052548 | 63 | 0 | 0.0 | 7.0 | 0.00 | 0.00 | 0.00 | 41 | 1022.2 |
| 20260904052047 | 63 | 242 | 0.0 | 7.0 | 0.00 | 0.00 | 0.00 | 41 | 1022.3 |
| 20260904051608 | 63 | 0 | 0.0 | 4.0 | 0.00 | 0.00 | 0.00 | 41 | 1022.2 |
| 20260904051047 | 63 | 0 | 0.0 | 8.0 | 0.00 | 0.00 | 0.00 | 41 | 1022.2 |
| 20260904050547 | 63 | 0 | 0.0 | 8.0 | 0.00 | 0.00 | 0.00 | 41 | 1022.3 |
| 20260904050057 | 63 | 185 | 0.0 | 4.0 | 0.00 | 0.00 | 0.00 | 41 | 1022.3 |
| 20260904045547 | 63 | 0 | 0.0 | 5.0 | 0.00 | 0.00 | 0.00 | 41 | 1022.3 |
| 20260904045046 | 63 | 275 | 0.0 | 5.0 | 0.00 | 0.00 | 0.00 | 41 | 1022.4 |
| 20260904044609 | 63 | 0 | 0.0 | 2.0 | 0.00 | 0.00 | 0.00 | 41 | 1022.4 |
| 20260904044046 | 64 | 0 | 0.0 | 2.0 | 0.00 | 0.00 | 0.00 | 40 | 1022.4 |
| 20260904043545 | 64 | 0 | 0.0 | 2.0 | 0.00 | 0.00 | 0.00 | 41 | 1022.4 |
| 20260904043100 | 64 | 0 | 0.0 | 2.0 | 0.00 | 0.00 | 0.00 | 40 | 1022.3 |
| 20260904042548 | 64 | 0 | 0.0 | 1.0 | 0.00 | 0.00 | 0.00 | 40 | 1022.4 |
| 20260904042048 | 64 | 0 | 0.0 | 0.0 | 0.00 | 0.00 | 0.00 | 41 | 1022.5 |
| 20260904041559 | 64 | 0 | 0.0 | 0.0 | 0.00 | 0.00 | 0.00 | 41 | 1022.6 |
| 20260904041047 | 64 | 0 | 0.0 | 1.0 | 0.00 | 0.00 | 0.00 | 41 | 1022.5 |
| 20260904040547 | 64 | 0 | 0.0 | 3.0 | 0.00 | 0.00 | 0.00 | 41 | 1022.5 |
| 20260904040110 | 64 | 0 | 0.0 | 3.0 | 0.00 | 0.00 | 0.00 | 41 | 1022.6 |
| 20260904035547 | 64 | 0 | 0.0 | 0.0 | 0.00 | 0.00 | 0.00 | 41 | 1022.7 |
| 20260904035051 | 64 | 0 | 0.0 | 0.0 | 0.00 | 0.00 | 0.00 | 41 | 1022.7 |
| 20260904034615 | 63 | 0 | 0.0 | 0.0 | 0.00 | 0.00 | 0.00 | 41 | 1022.7 |
| 20260904034046 | 64 | 0 | 0.0 | 0.0 | 0.00 | 0.00 | 0.00 | 41 | 1022.7 |
| 20260904033547 | 64 | 0 | 0.0 | 0.0 | 0.00 | 0.00 | 0.00 | 41 | 1022.7 |
| 20260904033109 | 64 | 0 | 0.0 | 0.0 | 0.00 | 0.00 | 0.00 | 41 | 1022.7 |
| 20260904032546 | 65 | 0 | 0.0 | 0.0 | 0.00 | 0.00 | 0.00 | 41 | 1022.7 |
| 20260904032045 | 65 | 0 | 0.0 | 0.0 | 0.00 | 0.00 | 0.00 | 41 | 1022.7 |
| 20260904031606 | 66 | 0 | 0.0 | 0.0 | 0.00 | 0.00 | 0.00 | 40 | 1022.7 |
| 20260904031045 | 67 | 0 | 0.0 | 0.0 | 0.00 | 0.00 | 0.00 | 39 | 1022.7 |
| 20260904030551 | 67 | 0 | 0.0 | 0.0 | 0.00 | 0.00 | 0.00 | 38 | 1022.7 |
| 20260904030117 | 68 | 0 | 0.0 | 0.0 | 0.00 | 0.00 | 0.00 | 37 | 1022.6 |
| 20260904025550 | 68 | 0 | 0.0 | 0.0 | 0.00 | 0.00 | 0.00 | 37 | 1022.5 |
| 20260904025047 | 68 | 0 | 0.0 | 0.0 | 0.00 | 0.00 | 0.00 | 37 | 1022.5 |
| 20260904024602 | 68 | 0 | 0.0 | 0.0 | 0.00 | 0.00 | 0.00 | 36 | 1022.6 |
| 20260904024049 | 69 | 0 | 0.0 | 0.0 | 0.00 | 0.00 | 0.00 | 36 | 1022.6 |
| 20260904023544 | 69 | 0 | 0.0 | 1.0 | 0.00 | 0.00 | 0.00 | 35 | 1022.6 |
| 20260904023107 | 69 | 0 | 0.0 | 1.0 | 0.00 | 0.00 | 0.00 | 35 | 1022.4 |
| 20260904022546 | 69 | 0 | 0.0 | 4.0 | 0.00 | 0.00 | 0.00 | 35 | 1022.3 |
| 20260904022046 | 70 | 0 | 0.0 | 4.0 | 0.00 | 0.00 | 0.00 | 34 | 1022.3 |
| 20260904021557 | 70 | 16 | 0.0 | 3.0 | 0.00 | 0.00 | 0.00 | 33 | 1022.3 |
| 20260904021047 | 70 | 27 | 0.0 | 2.0 | 0.00 | 0.00 | 0.00 | 32 | 1022.2 |
| 20260904020547 | 71 | 0 | 0.0 | 6.0 | 0.00 | 0.00 | 0.00 | 32 | 1022.2 |
| 20260904020057 | 71 | 0 | 0.0 | 6.0 | 0.00 | 0.00 | 0.00 | 31 | 1022.2 |
| 20260904015544 | 71 | 0 | 2.0 | 6.0 | 0.00 | 0.00 | 0.00 | 30 | 1022.2 |
| 20260904015046 | 72 | 0 | 0.0 | 8.0 | 0.00 | 0.00 | 0.00 | 29 | 1022.0 |
| 20260904014604 | 72 | 34 | 1.0 | 8.0 | 0.00 | 0.00 | 0.00 | 29 | 1022.1 |
| 20260904014046 | 72 | 0 | 1.0 | 9.0 | 0.00 | 0.00 | 0.00 | 29 | 1022.0 |
| 20260904013547 | 72 | 0 | 0.0 | 9.0 | 0.00 | 0.00 | 0.00 | 29 | 1022.0 |
| 20260904013058 | 73 | 32 | 1.0 | 9.0 | 0.00 | 0.00 | 0.00 | 28 | 1022.0 |
| 20260904012546 | 73 | 41 | 1.0 | 3.0 | 0.00 | 0.00 | 0.00 | 28 | 1022.0 |
| 20260904012048 | 73 | 44 | 0.0 | 1.0 | 0.00 | 0.00 | 0.00 | 27 | 1022.1 |
| 20260904011559 | 73 | 0 | 0.0 | 5.0 | 0.00 | 0.00 | 0.00 | 27 | 1022.0 |
| 20260904011045 | 74 | 0 | 0.0 | 5.0 | 0.00 | 0.00 | 0.00 | 27 | 1022.0 |
| 20260904010546 | 74 | 44 | 0.0 | 4.0 | 0.00 | 0.00 | 0.00 | 27 | 1022.0 |
| 20260904010101 | 74 | 45 | 1.0 | 5.0 | 0.00 | 0.00 | 0.00 | 27 | 1022.0 |
| 20260904005548 | 74 | 0 | 1.0 | 6.0 | 0.00 | 0.00 | 0.00 | 27 | 1021.9 |
| 20260904005049 | 75 | 32 | 2.0 | 6.0 | 0.00 | 0.00 | 0.00 | 26 | 1022.0 |
| 20260904004604 | 75 | 35 | 0.0 | 11.0 | 0.00 | 0.00 | 0.00 | 26 | 1022.0 |
| 20260904004047 | 75 | 35 | 0.0 | 11.0 | 0.00 | 0.00 | 0.00 | 26 | 1021.9 |
| 20260904003545 | 76 | 39 | 5.0 | 11.0 | 0.00 | 0.00 | 0.00 | 26 | 1022.0 |
| 20260904003100 | 76 | 48 | 6.0 | 10.0 | 0.00 | 0.00 | 0.00 | 26 | 1021.9 |
| 20260904002547 | 76 | 43 | 2.0 | 7.0 | 0.00 | 0.00 | 0.00 | 25 | 1021.9 |
| 20260904002051 | 76 | 0 | 1.0 | 11.0 | 0.00 | 0.00 | 0.00 | 25 | 1021.9 |
| 20260904001601 | 77 | 45 | 1.0 | 11.0 | 0.00 | 0.00 | 0.00 | 24 | 1021.8 |
| 20260904001044 | 77 | 31 | 1.0 | 11.0 | 0.00 | 0.00 | 0.00 | 24 | 1021.8 |
| 20260904000546 | 77 | 0 | 1.0 | 5.0 | 0.00 | 0.00 | 0.00 | 24 | 1021.7 |
| 20260904000132 | 77 | 0 | 0.0 | 0.0 | 0.00 | 0.00 | 0.00 | 24 | 1021.7 |
| 20260903235545 | 77 | 0 | 0.0 | 0.0 | 0.00 | 0.00 | 0.00 | 24 | 1021.7 |
| 20260903235049 | 77 | 0 | 0.0 | 5.0 | 0.00 | 0.00 | 0.00 | 24 | 1021.7 |
| 20260903234553 | 78 | 0 | 0.0 | 5.0 | 0.00 | 0.00 | 0.00 | 23 | 1021.7 |
| 20260903234044 | 78 | 0 | 0.0 | 3.0 | 0.00 | 0.00 | 0.00 | 23 | 1021.7 |
| 20260903233547 | 78 | 0 | 0.0 | 3.0 | 0.00 | 0.00 | 0.00 | 24 | 1021.7 |
| 20260903233102 | 78 | 0 | 0.0 | 3.0 | 0.00 | 0.00 | 0.00 | 24 | 1021.8 |
| 20260903232549 | 78 | 0 | 0.0 | 11.0 | 0.00 | 0.00 | 0.00 | 24 | 1021.7 |
| 20260903232045 | 78 | 0 | 2.0 | 11.0 | 0.00 | 0.00 | 0.00 | 24 | 1021.8 |
| 20260903231557 | 78 | 0 | 1.0 | 11.0 | 0.00 | 0.00 | 0.00 | 24 | 1021.8 |
| 20260903231044 | 78 | 47 | 5.0 | 11.0 | 0.00 | 0.00 | 0.00 | 24 | 1021.8 |
| 20260903230544 | 78 | 67 | 0.0 | 8.0 | 0.00 | 0.00 | 0.00 | 24 | 1021.8 |
| 20260903225544 | 78 | 0 | 1.0 | 13.0 | 0.00 | 0.00 | 0.00 | 24 | 1021.8 |
| 20260903225045 | 78 | 42 | 3.0 | 13.0 | 0.00 | 0.00 | 0.00 | 25 | 1021.9 |
| 20260903224610 | 77 | 38 | 3.0 | 7.0 | 0.00 | 0.00 | 0.00 | 25 | 1021.8 |
| 20260903224044 | 77 | 0 | 0.0 | 5.0 | 0.00 | 0.00 | 0.00 | 26 | 1021.8 |
| 20260903223544 | 77 | 0 | 0.0 | 5.0 | 0.00 | 0.00 | 0.00 | 26 | 1021.8 |
| 20260903223059 | 77 | 0 | 0.0 | 5.0 | 0.00 | 0.00 | 0.00 | 26 | 1021.7 |
| 20260903222543 | 77 | 0 | 0.0 | 4.0 | 0.00 | 0.00 | 0.00 | 25 | 1021.8 |
| 20260903222044 | 77 | 67 | 0.0 | 4.0 | 0.00 | 0.00 | 0.00 | 25 | 1021.8 |
| 20260903221556 | 77 | 0 | 0.0 | 4.0 | 0.00 | 0.00 | 0.00 | 25 | 1022.0 |
| 20260903221044 | 78 | 0 | 0.0 | 6.0 | 0.00 | 0.00 | 0.00 | 25 | 1022.0 |
| 20260903220544 | 77 | 0 | 0.0 | 6.0 | 0.00 | 0.00 | 0.00 | 25 | 1021.9 |
| 20260903220106 | 77 | 54 | 0.0 | 7.0 | 0.00 | 0.00 | 0.00 | 25 | 1022.0 |
| 20260903215545 | 78 | 0 | 0.0 | 7.0 | 0.00 | 0.00 | 0.00 | 24 | 1022.1 |
| 20260903215045 | 79 | 74 | 1.0 | 7.0 | 0.00 | 0.00 | 0.00 | 24 | 1022.0 |
| 20260903214553 | 78 | 0 | 0.0 | 6.0 | 0.00 | 0.00 | 0.00 | 24 | 1022.0 |
| 20260903214044 | 78 | 0 | 0.0 | 9.0 | 0.00 | 0.00 | 0.00 | 25 | 1022.1 |
| 20260903213544 | 78 | 142 | 0.0 | 9.0 | 0.00 | 0.00 | 0.00 | 24 | 1022.1 |
| 20260903213101 | 79 | 63 | 1.0 | 11.0 | 0.00 | 0.00 | 0.00 | 24 | 1022.0 |
| 20260903212544 | 79 | 0 | 1.0 | 12.0 | 0.00 | 0.00 | 0.00 | 24 | 1022.0 |
| 20260903212044 | 79 | 43 | 3.0 | 12.0 | 0.00 | 0.00 | 0.00 | 23 | 1022.1 |
| 20260903211617 | 80 | 0 | 0.0 | 6.0 | 0.00 | 0.00 | 0.00 | 23 | 1022.0 |
| 20260903211048 | 79 | 136 | 0.0 | 9.0 | 0.00 | 0.00 | 0.00 | 24 | 1022.1 |
| 20260903210544 | 79 | 0 | 4.0 | 10.0 | 0.00 | 0.00 | 0.00 | 23 | 1022.2 |
| 20260903210059 | 80 | 40 | 1.0 | 10.0 | 0.00 | 0.00 | 0.00 | 23 | 1022.2 |
| 20260903205544 | 79 | 0 | 1.0 | 10.0 | 0.00 | 0.00 | 0.00 | 24 | 1022.2 |
| 20260903205044 | 80 | 59 | 2.0 | 10.0 | 0.00 | 0.00 | 0.00 | 23 | 1022.2 |
| 20260903204603 | 80 | 0 | 1.0 | 9.0 | 0.00 | 0.00 | 0.00 | 23 | 1022.2 |
| 20260903204043 | 80 | 0 | 1.0 | 9.0 | 0.00 | 0.00 | 0.00 | 24 | 1022.3 |
| 20260903203544 | 79 | 58 | 0.0 | 9.0 | 0.00 | 0.00 | 0.00 | 24 | 1022.3 |
| 20260903203100 | 79 | 55 | 1.0 | 8.0 | 0.00 | 0.00 | 0.00 | 25 | 1022.3 |
| 20260903202544 | 79 | 59 | 0.0 | 8.0 | 0.00 | 0.00 | 0.00 | 24 | 1022.4 |
| 20260903202046 | 78 | 78 | 2.0 | 14.0 | 0.00 | 0.00 | 0.00 | 26 | 1022.3 |
| 20260903201553 | 78 | 0 | 1.0 | 14.0 | 0.00 | 0.00 | 0.00 | 25 | 1022.3 |
| 20260903201129 | 78 | 44 | 2.0 | 14.0 | 0.00 | 0.00 | 0.00 | 25 | 1022.4 |
| 20260903200544 | 78 | 0 | 2.0 | 9.0 | 0.00 | 0.00 | 0.00 | 26 | 1022.4 |
| 20260903200101 | 77 | 121 | 1.0 | 11.0 | 0.00 | 0.00 | 0.00 | 26 | 1022.6 |
| 20260903195543 | 77 | 0 | 2.0 | 11.0 | 0.00 | 0.00 | 0.00 | 26 | 1022.5 |
| 20260903195045 | 77 | 126 | 1.0 | 14.0 | 0.00 | 0.00 | 0.00 | 26 | 1022.7 |
| 20260903194559 | 77 | 53 | 3.0 | 14.0 | 0.00 | 0.00 | 0.00 | 26 | 1022.6 |
| 20260903194048 | 78 | 57 | 2.0 | 13.0 | 0.00 | 0.00 | 0.00 | 26 | 1022.6 |
| 20260903193543 | 78 | 67 | 1.0 | 13.0 | 0.00 | 0.00 | 0.00 | 26 | 1022.7 |
| 20260903193055 | 78 | 84 | 2.0 | 13.0 | 0.00 | 0.00 | 0.00 | 26 | 1022.8 |
| 20260903192545 | 78 | 0 | 0.0 | 8.0 | 0.00 | 0.00 | 0.00 | 25 | 1022.8 |
| 20260903192043 | 79 | 0 | 2.0 | 8.0 | 0.00 | 0.00 | 0.00 | 25 | 1022.8 |
| 20260903191600 | 79 | 105 | 0.0 | 9.0 | 0.00 | 0.00 | 0.00 | 25 | 1022.8 |
| 20260903191044 | 78 | 59 | 2.0 | 9.0 | 0.00 | 0.00 | 0.00 | 26 | 1022.8 |
| 20260903190545 | 78 | 0 | 0.0 | 10.0 | 0.00 | 0.00 | 0.00 | 26 | 1022.8 |
| 20260903190059 | 78 | 95 | 0.0 | 11.0 | 0.00 | 0.00 | 0.00 | 26 | 1022.8 |
| 20260903185543 | 77 | 40 | 4.0 | 11.0 | 0.00 | 0.00 | 0.00 | 26 | 1022.9 |
| 20260903185043 | 78 | 132 | 0.0 | 5.0 | 0.00 | 0.00 | 0.00 | 26 | 1023.0 |
| 20260903184602 | 77 | 168 | 0.0 | 9.0 | 0.00 | 0.00 | 0.00 | 27 | 1022.9 |
| 20260903184044 | 78 | 0 | 1.0 | 9.0 | 0.00 | 0.00 | 0.00 | 26 | 1023.1 |
| 20260903183544 | 78 | 0 | 0.0 | 8.0 | 0.00 | 0.00 | 0.00 | 26 | 1023.0 |
| 20260903183055 | 78 | 138 | 0.0 | 6.0 | 0.00 | 0.00 | 0.00 | 26 | 1023.1 |
| 20260903182544 | 78 | 0 | 0.0 | 9.0 | 0.00 | 0.00 | 0.00 | 27 | 1023.2 |
| 20260903182045 | 77 | 133 | 1.0 | 9.0 | 0.00 | 0.00 | 0.00 | 27 | 1023.2 |
| 20260903181558 | 77 | 0 | 2.0 | 9.0 | 0.00 | 0.00 | 0.00 | 27 | 1023.2 |
| 20260903181044 | 77 | 66 | 0.0 | 3.0 | 0.00 | 0.00 | 0.00 | 26 | 1023.2 |
| 20260903180544 | 78 | 0 | 0.0 | 4.0 | 0.00 | 0.00 | 0.00 | 26 | 1023.4 |
| 20260903180108 | 77 | 150 | 0.0 | 6.0 | 0.00 | 0.00 | 0.00 | 27 | 1023.3 |
| 20260903175543 | 77 | 0 | 0.0 | 6.0 | 0.00 | 0.00 | 0.00 | 28 | 1023.4 |
| 20260903175043 | 77 | 0 | 0.0 | 3.0 | 0.00 | 0.00 | 0.00 | 27 | 1023.4 |
| 20260903174611 | 76 | 0 | 0.0 | 3.0 | 0.00 | 0.00 | 0.00 | 28 | 1023.5 |
| 20260903174044 | 76 | 0 | 0.0 | 3.0 | 0.00 | 0.00 | 0.00 | 28 | 1023.5 |
| 20260903173544 | 75 | 0 | 0.0 | 4.0 | 0.00 | 0.00 | 0.00 | 28 | 1023.5 |
| 20260903173059 | 76 | 0 | 0.0 | 4.0 | 0.00 | 0.00 | 0.00 | 28 | 1023.6 |
| 20260903172545 | 76 | 0 | 0.0 | 6.0 | 0.00 | 0.00 | 0.00 | 27 | 1023.7 |
| 20260903172048 | 75 | 0 | 1.0 | 7.0 | 0.00 | 0.00 | 0.00 | 28 | 1023.6 |
| 20260903171603 | 75 | 0 | 1.0 | 7.0 | 0.00 | 0.00 | 0.00 | 28 | 1023.7 |
| 20260903171046 | 74 | 0 | 0.0 | 0.0 | 0.00 | 0.00 | 0.00 | 29 | 1023.7 |
| 20260903170618 | 75 | 0 | 0.0 | 1.0 | 0.00 | 0.00 | 0.00 | 29 | 1023.7 |
| 20260903170110 | 75 | 0 | 0.0 | 2.0 | 0.00 | 0.00 | 0.00 | 29 | 1023.6 |
| 20260903165543 | 74 | 0 | 0.0 | 5.0 | 0.00 | 0.00 | 0.00 | 30 | 1023.6 |
| 20260903165047 | 74 | 0 | 0.0 | 5.0 | 0.00 | 0.00 | 0.00 | 31 | 1023.6 |
| 20260903164556 | 73 | 99 | 0.0 | 5.0 | 0.00 | 0.00 | 0.00 | 30 | 1023.6 |
| 20260903164043 | 73 | 0 | 0.0 | 4.0 | 0.00 | 0.00 | 0.00 | 30 | 1023.6 |
| 20260903163544 | 73 | 0 | 0.0 | 7.0 | 0.00 | 0.00 | 0.00 | 30 | 1023.7 |
| 20260903163114 | 73 | 233 | 0.0 | 8.0 | 0.00 | 0.00 | 0.00 | 30 | 1023.7 |
| 20260903162547 | 73 | 217 | 0.0 | 9.0 | 0.00 | 0.00 | 0.00 | 31 | 1023.7 |
| 20260903162043 | 72 | 0 | 0.0 | 9.0 | 0.00 | 0.00 | 0.00 | 30 | 1023.7 |
| 20260903161559 | 72 | 254 | 2.0 | 9.0 | 0.00 | 0.00 | 0.00 | 31 | 1023.6 |
| 20260903161043 | 71 | 206 | 0.0 | 8.0 | 0.00 | 0.00 | 0.00 | 32 | 1023.7 |
| 20260903160546 | 71 | 0 | 0.0 | 8.0 | 0.00 | 0.00 | 0.00 | 32 | 1023.7 |
| 20260903155543 | 71 | 0 | 0.0 | 6.0 | 0.00 | 0.00 | 0.00 | 34 | 1023.7 |
| 20260903155045 | 70 | 0 | 0.0 | 6.0 | 0.00 | 0.00 | 0.00 | 34 | 1023.7 |
| 20260903154603 | 70 | 0 | 0.0 | 6.0 | 0.00 | 0.00 | 0.00 | 36 | 1023.7 |
| 20260903154043 | 69 | 0 | 0.0 | 4.0 | 0.00 | 0.00 | 0.00 | 35 | 1023.6 |
| 20260903153544 | 69 | 0 | 0.0 | 5.0 | 0.00 | 0.00 | 0.00 | 36 | 1023.7 |
| 20260903153104 | 69 | 0 | 0.0 | 5.0 | 0.00 | 0.00 | 0.00 | 36 | 1023.7 |
| 20260903152543 | 69 | 0 | 1.0 | 5.0 | 0.00 | 0.00 | 0.00 | 36 | 1023.7 |
| 20260903152046 | 69 | 0 | 0.0 | 6.0 | 0.00 | 0.00 | 0.00 | 37 | 1023.6 |
| 20260903151559 | 69 | 311 | 1.0 | 8.0 | 0.00 | 0.00 | 0.00 | 38 | 1023.7 |
| 20260903151046 | 68 | 294 | 2.0 | 12.0 | 0.00 | 0.00 | 0.00 | 38 | 1023.6 |
| 20260903150546 | 68 | 262 | 0.0 | 12.0 | 0.00 | 0.00 | 0.00 | 39 | 1023.7 |
| 20260903150112 | 68 | 0 | 2.0 | 12.0 | 0.00 | 0.00 | 0.00 | 39 | 1023.7 |
| 20260903145543 | 67 | 291 | 1.0 | 8.0 | 0.00 | 0.00 | 0.00 | 40 | 1023.8 |
| 20260903145045 | 67 | 0 | 0.0 | 7.0 | 0.00 | 0.00 | 0.00 | 41 | 1023.8 |
| 20260903144604 | 67 | 216 | 1.0 | 8.0 | 0.00 | 0.00 | 0.00 | 42 | 1023.8 |
| 20260903144044 | 66 | 339 | 2.0 | 8.0 | 0.00 | 0.00 | 0.00 | 43 | 1023.8 |
| 20260903143546 | 66 | 217 | 0.0 | 10.0 | 0.00 | 0.00 | 0.00 | 44 | 1023.8 |
| 20260903143105 | 65 | 201 | 2.0 | 10.0 | 0.00 | 0.00 | 0.00 | 44 | 1023.7 |
| 20260903142545 | 65 | 176 | 0.0 | 3.0 | 0.00 | 0.00 | 0.00 | 45 | 1023.8 |
| 20260903142046 | 64 | 0 | 0.0 | 1.0 | 0.00 | 0.00 | 0.00 | 48 | 1023.8 |
| 20260903141604 | 64 | 0 | 0.0 | 1.0 | 0.00 | 0.00 | 0.00 | 47 | 1023.8 |
| 20260903141045 | 64 | 0 | 0.0 | 2.0 | 0.00 | 0.00 | 0.00 | 47 | 1023.8 |
| 20260903140546 | 63 | 0 | 0.0 | 2.0 | 0.00 | 0.00 | 0.00 | 48 | 1023.7 |
| 20260903140103 | 63 | 0 | 0.0 | 2.0 | 0.00 | 0.00 | 0.00 | 48 | 1023.7 |
| 20260903135546 | 62 | 0 | 0.0 | 1.0 | 0.00 | 0.00 | 0.00 | 49 | 1023.7 |
| 20260903135046 | 61 | 0 | 0.0 | 0.0 | 0.00 | 0.00 | 0.00 | 51 | 1023.7 |
| 20260903134559 | 60 | 0 | 0.0 | 0.0 | 0.00 | 0.00 | 0.00 | 52 | 1023.7 |
| 20260903134045 | 59 | 0 | 0.0 | 0.0 | 0.00 | 0.00 | 0.00 | 55 | 1023.6 |
| 20260903133545 | 58 | 0 | 0.0 | 0.0 | 0.00 | 0.00 | 0.00 | 56 | 1023.6 |
| 20260903133057 | 57 | 0 | 0.0 | 1.0 | 0.00 | 0.00 | 0.00 | 57 | 1023.4 |
| 20260903132547 | 57 | 0 | 0.0 | 3.0 | 0.00 | 0.00 | 0.00 | 58 | 1023.4 |
| 20260903132043 | 56 | 0 | 0.0 | 3.0 | 0.00 | 0.00 | 0.00 | 58 | 1023.4 |
| 20260903131605 | 56 | 0 | 0.0 | 1.0 | 0.00 | 0.00 | 0.00 | 58 | 1023.5 |
| 20260903131049 | 55 | 0 | 0.0 | 0.0 | 0.00 | 0.00 | 0.00 | 59 | 1023.5 |
| 20260903130548 | 55 | 0 | 0.0 | 1.0 | 0.00 | 0.00 | 0.00 | 60 | 1023.4 |
| 20260903130116 | 55 | 0 | 0.0 | 1.0 | 0.00 | 0.00 | 0.00 | 60 | 1023.3 |
| 20260903125546 | 54 | 0 | 0.0 | 0.0 | 0.00 | 0.00 | 0.00 | 61 | 1023.4 |
| 20260903125049 | 54 | 0 | 0.0 | 0.0 | 0.00 | 0.00 | 0.00 | 61 | 1023.2 |
| 20260903124602 | 53 | 0 | 0.0 | 0.0 | 0.00 | 0.00 | 0.00 | 61 | 1023.1 |
| 20260903124045 | 53 | 0 | 0.0 | 0.0 | 0.00 | 0.00 | 0.00 | 62 | 1023.1 |
| 20260903123545 | 52 | 0 | 0.0 | 0.0 | 0.00 | 0.00 | 0.00 | 63 | 1023.0 |
| 20260903123057 | 52 | 0 | 0.0 | 0.0 | 0.00 | 0.00 | 0.00 | 64 | 1023.0 |
| 20260903122547 | 52 | 0 | 0.0 | 0.0 | 0.00 | 0.00 | 0.00 | 64 | 1022.9 |
| 20260903122046 | 52 | 0 | 0.0 | 0.0 | 0.00 | 0.00 | 0.00 | 65 | 1022.9 |
| 20260903121604 | 52 | 0 | 0.0 | 0.0 | 0.00 | 0.00 | 0.00 | 65 | 1022.9 |
| 20260903121044 | 51 | 0 | 0.0 | 0.0 | 0.00 | 0.00 | 0.00 | 67 | 1022.9 |